Flag for Colombia Weather past 2 weeks in Medellin, Colombia

Now
59 °F

Passing clouds.


Feels Like: 59 °F
Forecast: 64 / 88 °F
Wind: No wind

Location: Rionegro / J. M. Cordova

Current Time: Apr 27, 2015 at 12:45:56 AM

Latest Report: Apr 27, 2015 at 12:00 AM


Visibility: N/A

Pressure: 30.30 "Hg

Humidity: 94%

Dew point: 57 °F

Location of MedellinLocation

Historic Weather in Medellin — Graph

°F

Medellin temperature yesterday

Maximum temperature yesterday: 75 °F (at 3:00 PM)
Minimum temperature yesterday: 55 °F (at 3:00 AM)
Average temperature yesterday: 64 °F

Past Weeks' High & Low Weather Summary

 TemperatureHumidityPressure
High77 °F (Apr 24, 1:00 PM)100% (Apr 12, 6:00 AM)30.41 "Hg (Apr 12, 6:00 AM)
Low52 °F (Apr 22, 5:00 AM)39% (Apr 24, 1:00 PM)30.05 "Hg (Apr 18, 9:00 PM)
Average63 °F82%30.28 "Hg
* Reported Apr 11 11:00 PM — Apr 26 11:00 PM, Medellin, Weather by CustomWeather, © 2015

Note: Actual official high and low records may vary slightly from our data, if they occured in-between our weather recording intervals... More about our weather records

Advertising

Medellin weather history for previous 24 hours

 ConditionsComfort  
Time TempWeatherWind HumidityBarometerVisibility
11:00 PM
Sun, Apr 26
59 °FPassing clouds.No wind94%30.30 "HgN/A
10:00 PM61 °FPassing clouds.No wind94%30.29 "HgN/A
9:00 PM64 °FPassing clouds.No wind83%30.27 "HgN/A
8:00 PM64 °FPassing clouds.6 mph83%30.26 "HgN/A
7:00 PM66 °FPassing clouds.No wind78%30.23 "HgN/A
6:00 PM70 °FScattered clouds.7 mph57%30.20 "HgN/A
5:00 PM72 °FPassing clouds.12 mph53%30.19 "HgN/A
4:00 PM73 °FPassing clouds.5 mph50%30.19 "HgN/A
3:00 PM75 °FScattered clouds.5 mph47%30.20 "HgN/A
2:00 PM73 °FScattered clouds.8 mph53%30.24 "HgN/A
1:00 PM73 °FScattered clouds.12 mph57%30.27 "HgN/A
12:00 PM72 °FPassing clouds.14 mph53%30.28 "HgN/A
11:00 AM72 °FPassing clouds.5 mph57%30.29 "HgN/A
10:00 AM68 °FScattered clouds.5 mph69%30.30 "HgN/A
9:00 AM64 °FPassing clouds.5 mph78%30.31 "HgN/A
8:00 AM59 °FSnow. Broken clouds.No wind94%30.30 "Hg4 mi
7:00 AM57 °FFog.No wind94%30.28 "Hg2 mi
6:00 AM55 °FSnow. Broken clouds.No wind100%30.27 "Hg4 mi
5:00 AM55 °FFog.No wind100%30.27 "Hg1 mi
4:00 AM55 °FFog.No wind100%30.26 "Hg0 mi
3:00 AM55 °FPartly cloudy.2 mph94%30.25 "Hg5 mi
2:00 AM57 °FPassing clouds.No wind94%30.26 "Hg6 mi
1:00 AM59 °FFog.No wind88%30.28 "HgN/A
12:00 AM59 °FPartly cloudy.No wind88%30.30 "HgN/A
Weather by CustomWeather, © 2015

See weather overviewHow to use our weather pages